Regional Weather Roundup
Issued by NWS

Home | Current Version | Previous Version | Text Only | Print | Product List | Glossary On
Versions: 1 2 3 4 5 6 7 8 9 10 11 12 13 14 15 16 17 18 19 20 21 22 23 24 25 26 27 28 29 30 31 32 33 34 35 36 37 38 39 40 41 42 43 44 45 46 47 48 49 50
000
ASCA44 KEWX 240220
RWRMX

LATIN AMERICA AND CARIBBEAN REGIONAL WEATHER ROUNDUP
NATIONAL WEATHER SERVICE AUSTIN/SAN ANTONIO TX
900 PM CDT SUN APR 23 2017

NOTE: "FAIR" INDICATED FEW OR NO CLOUDS BELOW 12,000 FEET WITH NO
SIGNIFICANT WEATHER AND/OR OBSTRUCTIONS TO VISIBILITY.

BAJA CALIFORNIA

CITY           SKY/WX    TMP DP  RH WIND       PRES   REMARKS
LORETO         CLEAR     84  68  58 CALM      29.73R
LA PAZ         CLEAR     86  34  15 S14       29.81R
MEXICALI       CLEAR     90  30  12 W13       29.65S
S.J. DEL CABO  PTCLDY    84  46  26 E6        29.80R
TIJUANA        PTCLDY    61  50  67 SW5       29.90S

NORTHWESTERN MEXICO

CITY           SKY/WX    TMP DP  RH WIND       PRES   REMARKS
CULIACAN       MOCLDY    82  64  54 S7        29.78R
DURANGO        CLOUDY    66  41  39 N10       30.15S
GUAYMAS        CLEAR     86  46  25 S12       29.66R
HERMOSILLO     CLEAR     93  25   8 SW9       29.73S
CD. JUAREZ     PTCLDY    79  37  22 SE9       29.83F
LOS MOCHIS     CLEAR     84  43  23 W6        29.77R
OBREGON        PTCLDY    82  48  30 S6        29.71S

NORTHEASTERN MEXICO

CITY           SKY/WX    TMP DP  RH WIND       PRES   REMARKS
CHIHUAHUA      MOCLDY    77  45  31 SE8       29.99R
MATAMOROS        N/A    N/A N/A N/A MISG        N/A
MONCLOVA         N/A    N/A N/A N/A MISG        N/A
MONTERREY      MOCLDY    70  46  43 SE7       30.01S
NUEVO LAREDO     N/A    N/A N/A N/A MISG        N/A
PIEDRAS NEGRAS   N/A    N/A N/A N/A MISG        N/A
REYNOSA        PTCLDY    68  39  34 CALM      30.00R
SALTILLO       MOCLDY    59  46  63 N9        30.17R
TORREON        CLOUDY    79  46  31 S18       30.00F
CD. VICTORIA   PTCLDY    68  57  68 W6        30.03R

WESTERN MEXICO

CITY           SKY/WX    TMP DP  RH WIND       PRES   REMARKS
AGUASCALIENTES MOCLDY    75  25  15 NE7       30.11R
COLIMA         PTCLDY    70  66  88 SW9       29.97R
DEL BAJIO      MOCLDY    75  39  27 SW10      30.17
GUADALAJARA    CLOUDY    79  30  17 W3        30.05R
MANZANILLO     PTCLDY    77  72  83 CALM      29.85R
MAZATLAN       PTCLDY    79  70  73 W3        29.81R
P. VALLARTA    CLOUDY    77  72  83 SW5       29.86R
URUAPAN        CLOUDY    70  46  43 CALM      30.12R
ZACATECAS      MOCLDY    70  32  24 SW5       30.21R

CENTRAL MEXICO

CITY           SKY/WX    TMP DP  RH WIND       PRES   REMARKS
CUERNAVACA       N/A    N/A N/A N/A MISG        N/A
MEXICO CITY    MOCLDY    61  43  51 E9        30.28R
MORELIA        MOCLDY    68  45  42 CALM      30.14R
POZA RICA      PTCLDY    73  68  83 NE69      30.06R
PUEBLA         CLOUDY    61  45  55 N8        30.29R
QUERETARO      PTCLDY    68  46  45 E16       30.22
S. LUIS POTOSI PTCLDY    64  46  52 E7        30.15R
TAMPICO        CLEAR     72  63  73 N17       30.01R
TOLUCA         CLOUDY    55  46  71 S7        30.36R

SOUTHERN MEXICO

CITY           SKY/WX    TMP DP  RH WIND       PRES   REMARKS
ACAPULCO       MOCLDY    79  70  73 CALM      29.85R
B. DE HUATULCO PTCLDY    79  66  65 W12       29.88R
OAXACA         PTCLDY    64  54  68 S3        30.19R
P. ESCONDIDO     N/A    N/A N/A N/A MISG        N/A
VERACRUZ       PTCLDY    79  72  78 NE12      30.00R
ZIHUATANEJO    PTCLDY    79  68  69 CALM      29.85R

YUCATAN PENINSULA

CITY           SKY/WX    TMP DP  RH WIND       PRES   REMARKS
CAMPECHE       CLEAR     81  72  74 N12G23    29.88R
CANCUN         CLEAR     73  70  88 NW5       29.90R
CHETUMAL       PTCLDY    82  75  78 SE13      29.85R
CD. DEL CARMEN PTCLDY    81  72  74 N14       29.92R
COZUMEL        PTCLDY    79  68  69 N13       29.88R
MERIDA         CLEAR     77  68  73 N6        29.92R
MINATITLAN       N/A    N/A N/A N/A MISG        N/A
TAPACHULA      PTCLDY    81  73  78 CALM      29.82R
TUX. GUTIERREZ CLOUDY    77  61  57 W25       29.94R
VILLAHERMOSA   MOCLDY    75  70  83 CALM      29.97R

CENTRAL AMERICA

CITY           SKY/WX    TMP DP  RH WIND       PRES   REMARKS
BELIZE CITY    PTCLDY    79  77  94 S5        29.85R
MANAGUA        PTCLDY    88  68  51 NE7       29.74R HX  91

CARIBBEAN

CITY           SKY/WX    TMP DP  RH WIND       PRES   REMARKS
ARUBA          PTCLDY    82  77  83 E16       29.80S HX  91
CURACAO          N/A     81  77  89 E13       29.86R
KINGSTON       PTCLDY    81  72  74 N8        29.83S
NASSAU         MOCLDY    77  72  83 SE8       29.81R
SAN JUAN       PTCLDY    81  75  83 E8        29.98R
SANTO DOMINGO  CLOUDY    77  75  94 E5        29.92S
ST. CROIX      HVY RAIN  75 N/A N/A E16       30.00
ST. KITTS      MOCLDY    79  72  78 E13       30.00R
ST. MAARTEN    PTCLDY    79  73  83 E15       30.00R
ST. THOMAS     PTCLDY    81  73  78 E14       29.98R

$$





USA.gov is the U.S. government's official web portal to all federal, state and local government web resources and services.